ZTF彗星

C/2020 V2 ( ZTF )

English version
Home page
Updated on July 4, 2022

---------------------------------------------------------------------

・ プロフィール

発見日 2020年11月2日
発見光度 19.0等
発見者 Zwicky Transient Facility

・ 写真集

・ 軌道要素

Epoch 2022 Jan. 21.0 TT = JDT 2459600.5
T 2023 May 8.49270 TT                                   Rudenko
q   2.2282569            (2000.0)            P               Q
z  -0.0005397      Peri.  162.40080     +0.69768983     +0.59419144
 +/-0.0000009      Node   212.36104     +0.53377341     -0.05855830
e   1.0012027      Incl.  131.60872     +0.47782303     -0.80218917
From 1206 observations 2020 Apr. 18-2022 Feb. 1, mean residual 0".3.

・ 星図

・ 光度変化

        m1 = -19.4 + 5 logΔ + 35   log r  [    ,-910]  (              〜2020年11月 9日)
        m1 =   4.0 + 5 logΔ + 10.0 log r  [-910,    ]  (2020年11月 9日〜              )

---------------------------------------------------------------------

軌道要素はM.P.E.C. 2022-C56に掲載されたものです。
星図はステラナビゲータ Ver.10 (アストロアーツ) で作成したものです。
光度グラフはComet for Windowsで作成したものです。

---------------------------------------------------------------------

Copyright(C) Seiichi Yoshida (comet@aerith.net). All rights reserved.